TimePST,TemperatureF,Dew PointF,Humidity,Sea Level PressureIn,VisibilityMPH,Wind Direction,Wind SpeedMPH,Gust SpeedMPH,PrecipitationIn,Events,Conditions,WindDirDegrees,DateUTC
12:47 AM,55.0,33.1,43,30.04,10.0,Calm,Calm,-,N/A,,Clear,0,2013-01-23 08:47:00
1:47 AM,55.0,30.9,40,30.04,10.0,Calm,Calm,-,N/A,,Clear,0,2013-01-23 09:47:00
2:47 AM,55.9,28.0,34,30.04,10.0,Calm,Calm,-,N/A,,Clear,0,2013-01-23 10:47:00
3:47 AM,55.9,25.0,30,30.02,10.0,Calm,Calm,-,N/A,,Clear,0,2013-01-23 11:47:00
4:47 AM,57.0,24.1,28,30.01,10.0,Calm,Calm,-,N/A,,Clear,0,2013-01-23 12:47:00
5:47 AM,57.9,24.1,27,30.02,10.0,Calm,Calm,-,N/A,,Clear,0,2013-01-23 13:47:00
6:47 AM,61.0,21.0,21,30.03,10.0,NNE,4.6,-,N/A,,Clear,20,2013-01-23 14:47:00
7:47 AM,62.1,21.0,21,30.02,10.0,Calm,Calm,-,N/A,,Clear,0,2013-01-23 15:47:00
8:47 AM,68.0,21.0,17,30.03,10.0,East,3.5,-,N/A,,Clear,90,2013-01-23 16:47:00
9:47 AM,72.0,21.9,15,30.04,10.0,East,5.8,-,N/A,,Clear,90,2013-01-23 17:47:00
10:47 AM,75.0,23.0,14,30.04,10.0,East,4.6,-,N/A,,Clear,100,2013-01-23 18:47:00
11:47 AM,77.0,25.0,15,30.04,10.0,Calm,Calm,-,N/A,,Clear,0,2013-01-23 19:47:00
12:47 PM,75.9,27.0,16,30.02,10.0,South,4.6,-,N/A,,Clear,170,2013-01-23 20:47:00
1:47 PM,73.9,26.1,17,30.01,10.0,Variable,3.5,-,N/A,,Mostly Cloudy,0,2013-01-23 21:47:00
2:47 PM,73.0,26.1,17,30.02,10.0,Variable,3.5,-,N/A,,Partly Cloudy,0,2013-01-23 22:47:00
3:47 PM,71.1,26.1,19,30.02,10.0,Variable,3.5,-,N/A,,Clear,0,2013-01-23 23:47:00
4:47 PM,70.0,28.9,22,30.04,10.0,SE,3.5,-,N/A,,Partly Cloudy,140,2013-01-24 00:47:00
5:47 PM,66.9,35.1,31,30.06,10.0,South,4.6,-,N/A,,Mostly Cloudy,180,2013-01-24 01:47:00
6:47 PM,64.9,39.0,39,30.07,10.0,Calm,Calm,-,N/A,,Mostly Cloudy,0,2013-01-24 02:47:00
7:47 PM,63.0,43.0,48,30.07,10.0,Calm,Calm,-,N/A,,Overcast,0,2013-01-24 03:47:00
8:47 PM,63.0,43.0,48,30.07,10.0,Calm,Calm,-,N/A,,Overcast,0,2013-01-24 04:47:00
9:47 PM,61.0,46.9,60,30.10,10.0,Calm,Calm,-,0.00,Rain,Light Rain,0,2013-01-24 05:47:00
10:47 PM,60.1,48.9,67,30.14,10.0,Calm,Calm,-,0.00,Rain,Light Rain,0,2013-01-24 06:47:00
11:47 PM,59.0,51.1,75,30.14,9.0,East,4.6,-,0.02,Rain,Light Rain,80,2013-01-24 07:47:00